This demonstration page uses our WeatherBlox Daily Observations layout. Learn more.

Left ArrowRight Arrow

40.97296, -117.73568

Hourly Observations for September 24, 2022

Temp ( °F °C ) Dew Point ( °F °C ) Humidity (%) Winds ( mph kmh ) Pressure ( in mb ) Visibility ( mi km ) Precip ( " mm )
12:56 am 00:56 Clear 44 6.7 N/A N/A Calm 30.13 1020 10 16 0.00 0.00
1:56 am 01:56 Clear 42 5.6 N/A N/A S 3 6 30.15 1021 10 16 0.00 0.00
2:56 am 02:56 Clear 39 3.9 N/A N/A Calm 30.14 1021 10 16 0.00 0.00
3:56 am 03:56 Clear 35 1.7 N/A N/A S 8 13 30.16 1021 10 16 0.00 0.00
4:56 am 04:56 Clear 37 2.8 N/A N/A Calm 30.16 1021 10 16 0.00 0.00
5:56 am 05:56 Clear 37 2.8 N/A N/A Calm 30.16 1022 10 16 0.00 0.00
6:56 am 06:56 Sunny 34 1.1 N/A N/A S 8 13 30.21 1023 10 16 0.00 0.00
7:56 am 07:56 Sunny 44 6.7 N/A N/A Calm 30.24 1024 10 16 0.00 0.00
8:56 am 08:56 Sunny 56 13.3 N/A N/A Calm 30.24 1024 10 16 0.00 0.00
9:56 am 09:56 Sunny 64 17.8 N/A N/A Calm 30.22 1024 10 16 0.00 0.00
10:56 am 10:56 Sunny 71 21.7 N/A N/A VRB 3 6 30.23 1024 10 16 0.00 0.00
11:56 am 11:56 Sunny 77 25 N/A N/A VRB 3 6 30.20 1023 10 16 0.00 0.00
12:56 pm 12:56 Sunny 81 27.2 N/A N/A NW 3 6 30.18 1022 10 16 0.00 0.00
1:56 pm 13:56 Sunny 83 28.3 N/A N/A VRB 7 11 30.16 1021 10 16 0.00 0.00
2:56 pm 14:56 Sunny 84 28.9 N/A N/A WNW 6 9 30.15 1021 10 16 0.00 0.00
3:56 pm 15:56 Sunny 83 28.3 N/A N/A Calm 30.15 1021 10 16 0.00 0.00
4:56 pm 16:56 Sunny 84 28.9 N/A N/A NNW 7 11 30.13 1020 10 16 0.00 0.00
5:56 pm 17:56 Sunny 82 27.8 N/A N/A NNW 6 9 30.14 1021 10 16 0.00 0.00
6:56 pm 18:56 Clear 73 22.8 N/A N/A N 7 11 30.17 1022 10 16 0.00 0.00
7:56 pm 19:56 Clear 59 15 N/A N/A ESE 3 6 30.19 1023 10 16 0.00 0.00
8:56 pm 20:56 Clear 56 13.3 N/A N/A WNW 5 7 30.19 1022 10 16 0.00 0.00
9:56 pm 21:56 Clear 55 12.8 N/A N/A N 3 6 30.18 1022 10 16 0.00 0.00
10:56 pm 22:56 Clear 46 7.8 N/A N/A S 5 7 30.19 1022 10 16 0.00 0.00
11:56 pm 23:56 Clear 49 9.4 N/A N/A SSE 10 17 30.17 1022 10 16 0.00 0.00

Powered by AerisWeather